Main page
METAR-TAF:

METAR-TAF

Airports :

Venice Municipal Airport

Venice, Florida, United States

latitude: 27-04-18N, longitude: 082-26-25W, elevation: 16 ft

Current weather observation

The report was made 13 minutes ago, at 08:15 UTC
Wind 10 mph from the East/Northeast
Temperature 77°F
Humidity 94%
Pressure 29.91 in. Hg
Visibility: 9 miles
Clear sky

METAR: KVNC 240815Z AUTO 06009KT 9SM CLR 25/24 A2991 RMK AO2

Time: 04:28 (08:28 UTC)


TAF: missing

Weather observations and forecasts of more than 4000 airports (METAR and TAF reports).

The available stations are represented by yellow and red dots on the map.

Hover mouse over dot to see the name of the station.

Then click to see weather observations and forecasts.

To change the map : click on the green buttons with a black cross to zoom in, on the green button with a dash to zoom out, or on the green arrows for adjacent maps.


METAR-TAF: